This demonstration page uses our WeatherBlox Daily Observations layout. Learn more.

Left ArrowRight Arrow

34.16533, -84.80231

Hourly Observations for August 18, 2017

Temp ( °F °C ) Dew Point ( °F °C ) Humidity (%) Winds ( mph kmh ) Pressure ( in mb ) Visibility ( mi km ) Precip ( " mm )
12:53 am 00:53 Clear 77 25 74 23.3 90 90 Calm 29.98 1015 10 16 0.00 0.00
1:53 am 01:53 Clear 75 23.9 74 23.3 96 96 Calm 29.96 1015 10 16 0.00 0.00
2:53 am 02:53 Clear 74 23.3 73 22.8 97 97 Calm 29.95 1014 10 16 0.00 0.00
3:53 am 03:53 Clear 73 22.8 73 22.8 100 100 Calm 29.95 1014 10 16 0.00 0.00
4:53 am 04:53 Clear 72 22.2 72 22.2 100 100 Calm 29.94 1014 10 16 0.00 0.00
5:53 am 05:53 Clear 72 22.2 72 22.2 100 100 Calm 29.95 1014 10 16 0.00 0.00
6:53 am 06:53 Clear 71 21.7 71 21.7 100 100 Calm 29.97 1015 10 16 0.00 0.00
7:53 am 07:53 Mostly Sunny 74 23.3 73 22.8 97 97 Calm 29.98 1015 10 16 0.00 0.00
8:08 am 08:08 Mostly Cloudy 75 23.9 73 22.8 94 94 Calm 30.03 1017 10 16 0.00 0.00
8:53 am 08:53 Partly Cloudy 78 25.6 74 23.3 87 87 Calm 29.98 1015 10 16 0.00 0.00
9:53 am 09:53 Mostly Sunny 81 27.2 75 23.9 82 82 VRB 5 7 29.98 1015 10 16 0.00 0.00
10:26 am 10:26 Mostly Cloudy 81 27.2 74 23.3 79 79 Calm 30.00 1016 10 16 0.00 0.00
10:53 am 10:53 Mostly Cloudy 84 28.9 75 23.9 74 74 Calm 29.98 1015 10 16 0.00 0.00
11:53 am 11:53 Mostly Cloudy 84 28.9 73 22.8 70 70 VRB 5 7 29.98 1015 10 16 0.00 0.00
12:53 pm 12:53 Partly Cloudy 88 31.1 73 22.8 61 61 VRB 3 6 29.97 1015 10 16 0.00 0.00
1:53 pm 13:53 Mostly Sunny 88 31.1 71 21.7 57 57 VRB 5 7 29.95 1014 10 16 0.00 0.00
2:53 pm 14:53 Sunny 88 31.1 69 20.6 54 54 undefined N/A 29.94 1014 10 16 0.00 0.00
3:53 pm 15:53 Mostly Sunny 90 32.2 68 20 48 48 VRB 5 7 29.92 1013 10 16 0.00 0.00
4:53 pm 16:53 Partly Cloudy 90 32.2 67 19.4 47 47 VRB 3 6 29.91 1013 10 16 0.00 0.00
5:53 pm 17:53 Mostly Sunny 89 31.7 66 18.9 47 47 Calm 29.91 1013 10 16 0.00 0.00
6:53 pm 18:53 Sunny 87 30.6 66 18.9 50 50 Calm 29.93 1013 10 16 0.00 0.00
7:53 pm 19:53 Sunny 83 28.3 67 19.4 59 59 Calm 29.94 1014 10 16 0.00 0.00
8:53 pm 20:53 Clear 75 23.9 69 20.6 82 82 Calm 29.95 1014 10 16 0.00 0.00
9:53 pm 21:53 Clear 74 23.3 70 21.1 88 88 Calm 29.95 1014 10 16 0.00 0.00
10:53 pm 22:53 Clear 72 22.2 70 21.1 94 94 Calm 29.96 1015 10 16 0.00 0.00
11:53 pm 23:53 Clear 71 21.7 69 20.6 94 94 Calm 29.96 1015 10 16 0.00 0.00

Powered by AerisWeather